Location: *
(49.6619°S, 177.4603°W)
Time: 06:05:48
(UTC+00:00)

Cosmos 1743 Rocket - Pass Details

Date: 31 January 2023
Orbit: 604 x 630 km, 82.6° (Epoch: 01 April)

Event Time Altitude Azimuth Distance (km) Brightness Sun altitude
Rises 10:57:28 0° 192° (SSW) 2,955 8.6 -21.4°
Reaches altitude 10° 10:59:43 10° 193° (SSW) 2,043 7.4 -21.5°
Maximum altitude 11:04:15 77° 277° (W) 663 3.6 -21.7°
Enters shadow 11:05:03 59° 345° (NNW) 743 3.6 -21.7°
